Time,TemperatureF,DewpointF,PressureIn,WindDirection,WindDirectionDegrees,WindSpeedMPH,WindSpeedGustMPH,Humidity,HourlyPrecipIn,Conditions,Clouds,dailyrainin,SoftwareType,DateUTC
2013-12-06 00:00:00,28.8,21.9,30.16,NW,325,3.0,3.0,75,0.00,,,0.00,Wunderground v.1.15,2013-12-06 05:00:00,
2013-12-06 00:01:00,28.8,21.9,30.16,NW,325,3.0,3.0,75,0.00,,,0.00,Wunderground v.1.15,2013-12-06 05:01:00,
2013-12-06 00:03:00,28.8,21.9,30.17,NW,311,3.0,4.0,75,0.00,,,0.00,Wunderground v.1.15,2013-12-06 05:03:00,
2013-12-06 00:04:00,28.8,21.9,30.17,NW,323,3.0,4.0,75,0.00,,,0.00,Wunderground v.1.15,2013-12-06 05:04:00,
2013-12-06 00:07:00,28.8,21.9,30.17,NW,325,3.0,5.0,75,0.00,,,0.00,Wunderground v.1.15,2013-12-06 05:07:00,
2013-12-06 00:13:00,28.8,21.9,30.17,NW,308,3.0,8.0,75,0.00,,,0.00,Wunderground v.1.15,2013-12-06 05:13:00,
2013-12-06 00:15:00,28.8,21.9,30.17,WNW,290,3.0,8.0,75,0.00,,,0.00,Wunderground v.1.15,2013-12-06 05:15:00,
2013-12-06 00:21:00,28.8,21.9,30.16,NW,309,3.0,3.0,75,0.00,,,0.00,Wunderground v.1.15,2013-12-06 05:21:00,
2013-12-06 00:26:00,28.7,22.1,30.16,NW,309,1.0,3.0,76,0.00,,,0.00,Wunderground v.1.15,2013-12-06 05:26:00,
2013-12-06 00:32:00,28.7,22.1,30.17,NNW,344,2.0,5.0,76,0.00,,,0.00,Wunderground v.1.15,2013-12-06 05:32:00,
2013-12-06 00:37:00,28.7,21.8,30.18,West,269,3.0,5.0,75,0.00,,,0.00,Wunderground v.1.15,2013-12-06 05:37:00,
2013-12-06 00:43:00,28.7,21.8,30.17,WNW,291,4.0,8.0,75,0.00,,,0.00,Wunderground v.1.15,2013-12-06 05:43:00,
2013-12-06 00:49:00,28.6,21.4,30.17,NW,309,5.0,9.0,74,0.00,,,0.00,Wunderground v.1.15,2013-12-06 05:49:00,
2013-12-06 00:54:00,28.6,21.4,30.18,NW,326,5.0,9.0,74,0.00,,,0.00,Wunderground v.1.15,2013-12-06 05:54:00,
2013-12-06 01:00:00,28.5,21.3,30.17,NW,318,5.0,5.0,74,0.00,,,0.00,Wunderground v.1.15,2013-12-06 06:00:00,
2013-12-06 01:05:00,28.5,21.3,30.16,WNW,293,4.0,6.0,74,0.00,,,0.00,Wunderground v.1.15,2013-12-06 06:05:00,
2013-12-06 01:11:00,28.4,21.2,30.17,NW,320,4.0,4.0,74,0.00,,,0.00,Wunderground v.1.15,2013-12-06 06:11:00,
2013-12-06 01:16:00,28.4,21.2,30.17,NW,322,4.0,12.0,74,0.00,,,0.00,Wunderground v.1.15,2013-12-06 06:16:00,
2013-12-06 01:22:00,28.3,21.1,30.18,NW,317,5.0,5.0,74,0.00,,,0.00,Wunderground v.1.15,2013-12-06 06:22:00,
2013-12-06 01:27:00,28.3,21.1,30.17,NW,304,4.0,6.0,74,0.00,,,0.00,Wunderground v.1.15,2013-12-06 06:27:00,
2013-12-06 01:33:00,28.2,21.3,30.18,NNW,344,3.0,6.0,75,0.00,,,0.00,Wunderground v.1.15,2013-12-06 06:33:00,
2013-12-06 01:39:00,28.2,21.3,30.18,NNW,346,4.0,6.0,75,0.00,,,0.00,Wunderground v.1.15,2013-12-06 06:39:00,
2013-12-06 01:44:00,28.1,21.2,30.18,NW,322,5.0,7.0,75,0.00,,,0.00,Wunderground v.1.15,2013-12-06 06:44:00,
2013-12-06 01:49:00,28.1,21.2,30.17,North,349,4.0,7.0,75,0.00,,,0.00,Wunderground v.1.15,2013-12-06 06:49:00,
2013-12-06 01:54:00,28.0,21.1,30.17,North,350,4.0,10.0,75,0.00,,,0.00,Wunderground v.1.15,2013-12-06 06:54:00,
2013-12-06 02:00:00,27.9,21.0,30.18,NNW,334,4.0,4.0,75,0.00,,,0.00,Wunderground v.1.15,2013-12-06 07:00:00,
2013-12-06 02:05:00,27.9,21.0,30.17,WNW,298,3.0,5.0,75,0.00,,,0.00,Wunderground v.1.15,2013-12-06 07:05:00,
2013-12-06 02:11:00,27.8,20.6,30.17,North,350,3.0,9.0,74,0.00,,,0.00,Wunderground v.1.15,2013-12-06 07:11:00,
2013-12-06 02:16:00,27.7,20.5,30.17,NW,313,4.0,9.0,74,0.00,,,0.00,Wunderground v.1.15,2013-12-06 07:16:00,
2013-12-06 02:22:00,27.6,20.4,30.17,NNW,340,4.0,5.0,74,0.00,,,0.00,Wunderground v.1.15,2013-12-06 07:22:00,
2013-12-06 02:27:00,27.6,20.4,30.17,NNW,341,3.0,5.0,74,0.00,,,0.00,Wunderground v.1.15,2013-12-06 07:27:00,
2013-12-06 02:32:00,27.5,20.6,30.17,NNW,344,1.0,2.0,75,0.00,,,0.00,Wunderground v.1.15,2013-12-06 07:32:00,
2013-12-06 02:38:00,27.4,20.8,30.17,NW,321,2.0,5.0,76,0.00,,,0.00,Wunderground v.1.15,2013-12-06 07:38:00,
2013-12-06 02:43:00,27.3,20.4,30.17,NW,319,4.0,6.0,75,0.00,,,0.00,Wunderground v.1.15,2013-12-06 07:43:00,
2013-12-06 02:49:00,27.2,20.3,30.18,NNW,340,4.0,6.0,75,0.00,,,0.00,Wunderground v.1.15,2013-12-06 07:49:00,
2013-12-06 02:54:00,27.1,20.2,30.18,NNW,340,4.0,8.0,75,0.00,,,0.00,Wunderground v.1.15,2013-12-06 07:54:00,
2013-12-06 03:00:00,27.0,20.1,30.19,North,355,4.0,5.0,75,0.00,,,0.00,Wunderground v.1.15,2013-12-06 08:00:00,
2013-12-06 03:05:00,26.9,20.0,30.19,NNW,341,4.0,5.0,75,0.00,,,0.00,Wunderground v.1.15,2013-12-06 08:05:00,
2013-12-06 03:10:00,26.7,19.5,30.19,NNW,336,4.0,4.0,74,0.00,,,0.00,Wunderground v.1.15,2013-12-06 08:10:00,
2013-12-06 03:16:00,26.7,19.5,30.19,North,355,4.0,6.0,74,0.00,,,0.00,Wunderground v.1.15,2013-12-06 08:16:00,
2013-12-06 03:22:00,26.6,19.4,30.19,NNW,344,4.0,10.0,74,0.00,,,0.00,Wunderground v.1.15,2013-12-06 08:22:00,
2013-12-06 03:27:00,26.5,19.3,30.19,North,360,4.0,10.0,74,0.00,,,0.00,Wunderground v.1.15,2013-12-06 08:27:00,
2013-12-06 03:33:00,26.5,19.3,30.19,NNW,335,4.0,11.0,74,0.00,,,0.00,Wunderground v.1.15,2013-12-06 08:33:00,
2013-12-06 03:39:00,26.3,18.8,30.19,NW,317,5.0,11.0,73,0.00,,,0.00,Wunderground v.1.15,2013-12-06 08:39:00,
2013-12-06 03:44:00,26.2,19.0,30.20,NW,309,5.0,5.0,74,0.00,,,0.00,Wunderground v.1.15,2013-12-06 08:44:00,
2013-12-06 03:50:00,26.2,19.0,30.19,NW,322,4.0,4.0,74,0.00,,,0.00,Wunderground v.1.15,2013-12-06 08:50:00,
2013-12-06 03:55:00,26.1,18.9,30.20,NW,311,4.0,6.0,74,0.00,,,0.00,Wunderground v.1.15,2013-12-06 08:55:00,
2013-12-06 04:01:00,26.0,18.8,30.20,NNW,327,5.0,5.0,74,0.00,,,0.00,Wunderground v.1.15,2013-12-06 09:01:00,
2013-12-06 04:06:00,25.8,18.7,30.20,North,355,6.0,7.0,74,0.00,,,0.00,Wunderground v.1.15,2013-12-06 09:06:00,
2013-12-06 04:12:00,25.7,18.6,30.20,NNW,341,6.0,7.0,74,0.00,,,0.00,Wunderground v.1.15,2013-12-06 09:12:00,
2013-12-06 04:17:00,25.6,18.5,30.20,NNW,337,6.0,9.0,74,0.00,,,0.00,Wunderground v.1.15,2013-12-06 09:17:00,
2013-12-06 04:23:00,25.6,18.5,30.20,NNW,338,6.0,6.0,74,0.00,,,0.00,Wunderground v.1.15,2013-12-06 09:23:00,
2013-12-06 04:29:00,25.5,18.7,30.20,NW,318,4.0,6.0,75,0.00,,,0.00,Wunderground v.1.15,2013-12-06 09:29:00,
2013-12-06 04:34:00,25.4,18.6,30.20,NNW,329,4.0,5.0,75,0.00,,,0.00,Wunderground v.1.15,2013-12-06 09:34:00,
2013-12-06 04:39:00,25.3,18.2,30.20,West,275,4.0,7.0,74,0.00,,,0.00,Wunderground v.1.15,2013-12-06 09:39:00,
2013-12-06 04:45:00,25.2,18.1,30.20,NNW,347,4.0,5.0,74,0.00,,,0.00,Wunderground v.1.15,2013-12-06 09:45:00,
2013-12-06 04:50:00,25.2,18.4,30.21,NNW,333,3.0,3.0,75,0.00,,,0.00,Wunderground v.1.15,2013-12-06 09:50:00,
2013-12-06 04:55:00,25.2,18.4,30.21,WNW,292,2.0,3.0,75,0.00,,,0.00,Wunderground v.1.15,2013-12-06 09:55:00,
2013-12-06 05:01:00,25.2,18.4,30.22,NNW,329,3.0,9.0,75,0.00,,,0.00,Wunderground v.1.15,2013-12-06 10:01:00,
2013-12-06 05:06:00,25.2,18.4,30.22,North,350,2.0,9.0,75,0.00,,,0.00,Wunderground v.1.15,2013-12-06 10:06:00,
2013-12-06 05:12:00,25.2,18.7,30.22,North,360,1.0,4.0,76,0.00,,,0.00,Wunderground v.1.15,2013-12-06 10:12:00,
2013-12-06 05:17:00,25.2,18.7,30.23,NNW,345,2.0,8.0,76,0.00,,,0.00,Wunderground v.1.15,2013-12-06 10:17:00,
2013-12-06 05:22:00,25.1,18.6,30.23,North,349,4.0,6.0,76,0.00,,,0.00,Wunderground v.1.15,2013-12-06 10:22:00,
2013-12-06 05:28:00,25.0,18.5,30.23,NNW,341,5.0,7.0,76,0.00,,,0.00,Wunderground v.1.15,2013-12-06 10:28:00,
2013-12-06 05:33:00,24.9,18.1,30.23,NW,305,5.0,6.0,75,0.00,,,0.00,Wunderground v.1.15,2013-12-06 10:33:00,
2013-12-06 05:39:00,24.8,18.3,30.23,NNW,341,5.0,6.0,76,0.00,,,0.00,Wunderground v.1.15,2013-12-06 10:39:00,
2013-12-06 05:44:00,24.8,18.0,30.23,NW,315,4.0,10.0,75,0.00,,,0.00,Wunderground v.1.15,2013-12-06 10:44:00,
2013-12-06 05:50:00,24.7,17.9,30.24,WNW,300,6.0,6.0,75,0.00,,,0.00,Wunderground v.1.15,2013-12-06 10:50:00,
2013-12-06 05:55:00,24.7,17.9,30.23,NNW,337,5.0,7.0,75,0.00,,,0.00,Wunderground v.1.15,2013-12-06 10:55:00,
2013-12-06 06:01:00,24.6,17.8,30.23,WNW,303,4.0,5.0,75,0.00,,,0.00,Wunderground v.1.15,2013-12-06 11:01:00,
2013-12-06 06:06:00,24.5,17.7,30.23,NW,307,4.0,5.0,75,0.00,,,0.00,Wunderground v.1.15,2013-12-06 11:06:00,
2013-12-06 06:12:00,24.5,17.7,30.24,NNW,335,3.0,4.0,75,0.00,,,0.00,Wunderground v.1.15,2013-12-06 11:12:00,
2013-12-06 06:18:00,24.4,17.6,30.24,NW,312,4.0,12.0,75,0.00,,,0.00,Wunderground v.1.15,2013-12-06 11:18:00,
2013-12-06 06:23:00,24.4,17.9,30.24,NNW,329,4.0,4.0,76,0.00,,,0.00,Wunderground v.1.15,2013-12-06 11:23:00,
2013-12-06 06:29:00,24.4,17.9,30.25,NNW,342,3.0,8.0,76,0.00,,,0.00,Wunderground v.1.15,2013-12-06 11:29:00,
2013-12-06 06:34:00,24.3,17.8,30.24,NNW,333,4.0,9.0,76,0.00,,,0.00,Wunderground v.1.15,2013-12-06 11:34:00,
2013-12-06 06:40:00,24.3,17.8,30.25,North,351,4.0,7.0,76,0.00,,,0.00,Wunderground v.1.15,2013-12-06 11:40:00,
2013-12-06 06:45:00,24.3,17.8,30.24,NW,320,3.0,7.0,76,0.00,,,0.00,Wunderground v.1.15,2013-12-06 11:45:00,
2013-12-06 06:51:00,24.2,17.4,30.24,NNW,348,3.0,5.0,75,0.00,,,0.00,Wunderground v.1.15,2013-12-06 11:51:00,
2013-12-06 06:56:00,24.2,17.4,30.26,WNW,302,5.0,10.0,75,0.00,,,0.00,Wunderground v.1.15,2013-12-06 11:56:00,
2013-12-06 07:02:00,24.2,17.1,30.26,NNW,327,5.0,6.0,74,0.00,,,0.00,Wunderground v.1.15,2013-12-06 12:02:00,
2013-12-06 07:07:00,24.1,17.0,30.27,NNW,336,5.0,10.0,74,0.00,,,0.00,Wunderground v.1.15,2013-12-06 12:07:00,
2013-12-06 07:13:00,24.1,17.3,30.26,NW,311,5.0,6.0,75,0.00,,,0.00,Wunderground v.1.15,2013-12-06 12:13:00,
2013-12-06 07:19:00,24.1,17.3,30.26,NW,317,4.0,6.0,75,0.00,,,0.00,Wunderground v.1.15,2013-12-06 12:19:00,
2013-12-06 07:24:00,24.0,16.9,30.26,North,360,4.0,8.0,74,0.00,,,0.00,Wunderground v.1.15,2013-12-06 12:24:00,
2013-12-06 07:29:00,23.9,16.8,30.26,NNW,340,5.0,10.0,74,0.00,,,0.00,Wunderground v.1.15,2013-12-06 12:29:00,
2013-12-06 07:34:00,23.9,16.8,30.26,North,355,5.0,5.0,74,0.00,,,0.00,Wunderground v.1.15,2013-12-06 12:34:00,
2013-12-06 07:40:00,23.9,16.8,30.26,NNW,330,5.0,5.0,74,0.00,,,0.00,Wunderground v.1.15,2013-12-06 12:40:00,
2013-12-06 07:45:00,23.9,16.8,30.27,NNW,332,5.0,6.0,74,0.00,,,0.00,Wunderground v.1.15,2013-12-06 12:45:00,
2013-12-06 07:51:00,23.9,16.8,30.28,NNW,331,5.0,5.0,74,0.00,,,0.00,Wunderground v.1.15,2013-12-06 12:51:00,
2013-12-06 07:56:00,23.9,16.8,30.28,NNW,339,5.0,5.0,74,0.00,,,0.00,Wunderground v.1.15,2013-12-06 12:56:00,
2013-12-06 08:02:00,23.9,17.1,30.28,NW,311,4.0,8.0,75,0.00,,,0.00,Wunderground v.1.15,2013-12-06 13:02:00,
2013-12-06 08:07:00,23.8,17.0,30.29,WNW,298,4.0,8.0,75,0.00,,,0.00,Wunderground v.1.15,2013-12-06 13:07:00,
2013-12-06 08:12:00,23.8,17.3,30.29,NNW,343,4.0,4.0,76,0.00,,,0.00,Wunderground v.1.15,2013-12-06 13:12:00,
2013-12-06 08:18:00,23.8,17.3,30.29,NNW,333,3.0,4.0,76,0.00,,,0.00,Wunderground v.1.15,2013-12-06 13:18:00,
2013-12-06 08:23:00,23.8,17.3,30.29,NW,324,3.0,3.0,76,0.00,,,0.00,Wunderground v.1.15,2013-12-06 13:23:00,
2013-12-06 08:29:00,23.8,17.3,30.29,North,350,3.0,4.0,76,0.00,,,0.00,Wunderground v.1.15,2013-12-06 13:29:00,
2013-12-06 08:34:00,23.9,17.7,30.29,NNW,348,3.0,3.0,77,0.00,,,0.00,Wunderground v.1.15,2013-12-06 13:34:00,
2013-12-06 08:40:00,23.9,17.4,30.29,West,272,2.0,5.0,76,0.00,,,0.00,Wunderground v.1.15,2013-12-06 13:40:00,
2013-12-06 08:45:00,23.8,17.0,30.30,NNW,346,3.0,8.0,75,0.00,,,0.00,Wunderground v.1.15,2013-12-06 13:45:00,
2013-12-06 08:51:00,23.8,17.0,30.29,NW,321,3.0,4.0,75,0.00,,,0.00,Wunderground v.1.15,2013-12-06 13:51:00,
2013-12-06 08:56:00,23.8,17.0,30.31,WNW,293,3.0,6.0,75,0.00,,,0.00,Wunderground v.1.15,2013-12-06 13:56:00,
2013-12-06 09:02:00,23.8,16.7,30.31,NW,321,3.0,3.0,74,0.00,,,0.00,Wunderground v.1.15,2013-12-06 14:02:00,
2013-12-06 09:07:00,23.7,16.9,30.30,WNW,300,4.0,6.0,75,0.00,,,0.00,Wunderground v.1.15,2013-12-06 14:07:00,
2013-12-06 09:13:00,23.6,16.8,30.30,NNW,331,4.0,4.0,75,0.00,,,0.00,Wunderground v.1.15,2013-12-06 14:13:00,
2013-12-06 09:19:00,23.7,17.2,30.30,NNW,347,3.0,7.0,76,0.00,,,0.00,Wunderground v.1.15,2013-12-06 14:19:00,
2013-12-06 09:24:00,23.7,16.9,30.30,NNW,338,3.0,3.0,75,0.00,,,0.00,Wunderground v.1.15,2013-12-06 14:24:00,
2013-12-06 09:30:00,23.7,17.2,30.30,NNW,345,4.0,4.0,76,0.00,,,0.00,Wunderground v.1.15,2013-12-06 14:30:00,
2013-12-06 09:35:00,23.8,17.3,30.30,NNW,345,3.0,4.0,76,0.00,,,0.00,Wunderground v.1.15,2013-12-06 14:35:00,
2013-12-06 09:41:00,23.8,17.3,30.31,NNW,346,3.0,6.0,76,0.00,,,0.00,Wunderground v.1.15,2013-12-06 14:41:00,
2013-12-06 09:46:00,23.7,17.2,30.30,NNW,345,4.0,6.0,76,0.00,,,0.00,Wunderground v.1.15,2013-12-06 14:46:00,
2013-12-06 09:52:00,23.8,17.3,30.31,NNW,347,4.0,8.0,76,0.00,,,0.00,Wunderground v.1.15,2013-12-06 14:52:00,
2013-12-06 09:57:00,23.8,17.3,30.31,NNW,346,4.0,8.0,76,0.00,,,0.00,Wunderground v.1.15,2013-12-06 14:57:00,
2013-12-06 10:03:00,23.8,17.3,30.31,NNW,337,4.0,6.0,76,0.00,,,0.00,Wunderground v.1.15,2013-12-06 15:03:00,
2013-12-06 10:09:00,23.8,17.3,30.30,NW,325,4.0,6.0,76,0.00,,,0.00,Wunderground v.1.15,2013-12-06 15:09:00,
2013-12-06 10:15:00,23.6,16.8,30.30,NW,321,4.0,6.0,75,0.00,,,0.00,Wunderground v.1.15,2013-12-06 15:15:00,
2013-12-06 10:20:00,23.6,17.1,30.30,North,11,4.0,4.0,76,0.00,,,0.00,Wunderground v.1.15,2013-12-06 15:20:00,
2013-12-06 10:25:00,23.6,17.1,30.30,North,360,3.0,6.0,76,0.00,,,0.00,Wunderground v.1.15,2013-12-06 15:25:00,
2013-12-06 10:31:00,23.7,17.2,30.32,NNW,341,3.0,3.0,76,0.00,,,0.00,Wunderground v.1.15,2013-12-06 15:31:00,
2013-12-06 10:36:00,23.8,17.3,30.32,NW,307,3.0,6.0,76,0.00,,,0.00,Wunderground v.1.15,2013-12-06 15:36:00,
2013-12-06 10:42:00,23.9,17.4,30.33,NNW,329,3.0,3.0,76,0.00,,,0.00,Wunderground v.1.15,2013-12-06 15:42:00,
2013-12-06 10:48:00,24.0,17.5,30.34,NW,325,2.0,3.0,76,0.00,,,0.00,Wunderground v.1.15,2013-12-06 15:48:00,
2013-12-06 10:53:00,24.1,17.6,30.33,North,360,2.0,4.0,76,0.00,,,0.00,Wunderground v.1.15,2013-12-06 15:53:00,
2013-12-06 10:59:00,24.0,17.5,30.33,North,5,2.0,4.0,76,0.00,,,0.00,Wunderground v.1.15,2013-12-06 15:59:00,
2013-12-06 11:04:00,23.9,17.1,30.33,West,273,2.0,4.0,75,0.00,,,0.00,Wunderground v.1.15,2013-12-06 16:04:00,
2013-12-06 11:09:00,23.8,17.3,30.34,WNW,292,3.0,5.0,76,0.00,,,0.00,Wunderground v.1.15,2013-12-06 16:09:00,
2013-12-06 11:14:00,23.8,17.3,30.33,NW,305,4.0,5.0,76,0.00,,,0.00,Wunderground v.1.15,2013-12-06 16:14:00,
2013-12-06 11:20:00,23.8,17.3,30.34,NNW,337,3.0,4.0,76,0.00,,,0.00,Wunderground v.1.15,2013-12-06 16:20:00,
2013-12-06 11:25:00,23.7,17.2,30.33,NNW,339,3.0,7.0,76,0.00,,,0.00,Wunderground v.1.15,2013-12-06 16:25:00,
2013-12-06 11:31:00,23.6,17.4,30.34,NNW,329,4.0,4.0,77,0.00,,,0.00,Wunderground v.1.15,2013-12-06 16:31:00,
2013-12-06 11:36:00,23.6,17.4,30.34,NNW,333,4.0,4.0,77,0.00,,,0.00,Wunderground v.1.15,2013-12-06 16:36:00,
2013-12-06 11:42:00,23.7,17.5,30.34,NNE,19,3.0,7.0,77,0.00,,,0.00,Wunderground v.1.15,2013-12-06 16:42:00,
2013-12-06 11:47:00,23.6,17.4,30.34,North,360,3.0,7.0,77,0.00,,,0.00,Wunderground v.1.15,2013-12-06 16:47:00,
2013-12-06 11:52:00,23.6,17.4,30.34,NNW,344,4.0,4.0,77,0.00,,,0.00,Wunderground v.1.15,2013-12-06 16:52:00,
2013-12-06 11:57:00,23.6,17.1,30.34,NW,309,4.0,10.0,76,0.00,,,0.00,Wunderground v.1.15,2013-12-06 16:57:00,
2013-12-06 12:03:00,23.4,16.9,30.34,North,5,5.0,5.0,76,0.00,,,0.00,Wunderground v.1.15,2013-12-06 17:03:00,
2013-12-06 12:09:00,23.5,17.0,30.34,NNW,339,4.0,6.0,76,0.00,,,0.00,Wunderground v.1.15,2013-12-06 17:09:00,
2013-12-06 12:14:00,23.4,16.6,30.33,NNW,342,4.0,6.0,75,0.00,,,0.00,Wunderground v.1.15,2013-12-06 17:14:00,
2013-12-06 12:20:00,23.5,17.0,30.32,North,5,4.0,5.0,76,0.00,,,0.00,Wunderground v.1.15,2013-12-06 17:20:00,
2013-12-06 12:25:00,23.4,16.9,30.32,NNW,348,4.0,5.0,76,0.00,,,0.00,Wunderground v.1.15,2013-12-06 17:25:00,
2013-12-06 12:31:00,23.4,16.6,30.32,North,355,5.0,5.0,75,0.00,,,0.00,Wunderground v.1.15,2013-12-06 17:31:00,
2013-12-06 12:36:00,23.3,16.2,30.32,North,9,5.0,7.0,74,0.00,,,0.00,Wunderground v.1.15,2013-12-06 17:36:00,
2013-12-06 12:42:00,23.2,16.1,30.33,NNW,343,4.0,5.0,74,0.00,,,0.00,Wunderground v.1.15,2013-12-06 17:42:00,
2013-12-06 12:47:00,23.3,16.2,30.33,NW,325,3.0,5.0,74,0.00,,,0.00,Wunderground v.1.15,2013-12-06 17:47:00,
2013-12-06 12:52:00,23.3,15.9,30.33,NNW,329,4.0,7.0,73,0.00,,,0.00,Wunderground v.1.15,2013-12-06 17:52:00,
2013-12-06 12:57:00,23.3,15.9,30.33,NW,306,4.0,7.0,73,0.00,,,0.00,Wunderground v.1.15,2013-12-06 17:57:00,
2013-12-06 13:03:00,23.3,15.9,30.34,WNW,301,4.0,4.0,73,0.00,,,0.00,Wunderground v.1.15,2013-12-06 18:03:00,
2013-12-06 13:09:00,23.3,15.9,30.33,North,355,4.0,10.0,73,0.00,,,0.00,Wunderground v.1.15,2013-12-06 18:09:00,
2013-12-06 13:14:00,23.2,15.5,30.33,NW,310,5.0,5.0,72,0.00,,,0.00,Wunderground v.1.15,2013-12-06 18:14:00,
2013-12-06 13:20:00,23.2,15.8,30.32,NNW,341,4.0,4.0,73,0.00,,,0.00,Wunderground v.1.15,2013-12-06 18:20:00,
2013-12-06 13:25:00,23.3,15.6,30.32,North,349,4.0,7.0,72,0.00,,,0.00,Wunderground v.1.15,2013-12-06 18:25:00,
2013-12-06 13:31:00,23.2,15.5,30.33,NNW,348,5.0,8.0,72,0.00,,,0.00,Wunderground v.1.15,2013-12-06 18:31:00,
2013-12-06 13:36:00,23.2,15.5,30.33,North,360,6.0,8.0,72,0.00,,,0.00,Wunderground v.1.15,2013-12-06 18:36:00,
2013-12-06 13:42:00,23.1,15.1,30.31,North,9,5.0,6.0,71,0.00,,,0.00,Wunderground v.1.15,2013-12-06 18:42:00,
2013-12-06 13:47:00,23.0,15.3,30.30,NNW,346,5.0,6.0,72,0.00,,,0.00,Wunderground v.1.15,2013-12-06 18:47:00,
2013-12-06 13:53:00,23.1,15.4,30.31,NNW,340,4.0,5.0,72,0.00,,,0.00,Wunderground v.1.15,2013-12-06 18:53:00,
2013-12-06 13:59:00,23.1,15.1,30.31,North,351,5.0,11.0,71,0.00,,,0.00,Wunderground v.1.15,2013-12-06 18:59:00,
2013-12-06 14:04:00,23.0,15.3,30.31,NNW,342,5.0,5.0,72,0.00,,,0.00,Wunderground v.1.15,2013-12-06 19:04:00,
2013-12-06 14:10:00,23.2,15.5,30.31,NNW,345,3.0,3.0,72,0.00,,,0.00,Wunderground v.1.15,2013-12-06 19:10:00,
2013-12-06 14:15:00,23.3,15.3,30.31,North,360,3.0,5.0,71,0.00,,,0.00,Wunderground v.1.15,2013-12-06 19:15:00,
2013-12-06 14:20:00,23.3,15.3,30.31,NW,324,4.0,5.0,71,0.00,,,0.00,Wunderground v.1.15,2013-12-06 19:20:00,
2013-12-06 14:26:00,23.2,15.2,30.31,NW,309,4.0,5.0,71,0.00,,,0.00,Wunderground v.1.15,2013-12-06 19:26:00,
2013-12-06 14:31:00,23.1,15.1,30.30,North,10,4.0,5.0,71,0.00,,,0.00,Wunderground v.1.15,2013-12-06 19:31:00,
2013-12-06 14:37:00,23.1,15.1,30.30,North,355,5.0,6.0,71,0.00,,,0.00,Wunderground v.1.15,2013-12-06 19:37:00,
2013-12-06 14:43:00,23.1,14.8,30.29,NNE,17,5.0,5.0,70,0.00,,,0.00,Wunderground v.1.15,2013-12-06 19:43:00,
2013-12-06 14:49:00,23.1,15.1,30.31,North,355,5.0,10.0,71,0.00,,,0.00,Wunderground v.1.15,2013-12-06 19:49:00,
2013-12-06 14:54:00,23.2,15.2,30.31,NW,324,4.0,8.0,71,0.00,,,0.00,Wunderground v.1.15,2013-12-06 19:54:00,
2013-12-06 15:00:00,23.1,15.1,30.32,North,5,4.0,5.0,71,0.00,,,0.00,Wunderground v.1.15,2013-12-06 20:00:00,
2013-12-06 15:05:00,23.1,15.1,30.32,North,360,4.0,7.0,71,0.00,,,0.00,Wunderground v.1.15,2013-12-06 20:05:00,
2013-12-06 15:11:00,23.1,15.4,30.33,North,355,3.0,3.0,72,0.00,,,0.00,Wunderground v.1.15,2013-12-06 20:11:00,
2013-12-06 15:17:00,23.2,15.5,30.32,NW,315,2.0,5.0,72,0.00,,,0.00,Wunderground v.1.15,2013-12-06 20:17:00,
2013-12-06 15:22:00,23.2,15.5,30.32,NNW,338,3.0,8.0,72,0.00,,,0.00,Wunderground v.1.15,2013-12-06 20:22:00,
2013-12-06 15:27:00,23.2,15.5,30.32,NNW,342,4.0,8.0,72,0.00,,,0.00,Wunderground v.1.15,2013-12-06 20:27:00,
2013-12-06 15:33:00,23.1,15.4,30.31,North,355,4.0,6.0,72,0.00,,,0.00,Wunderground v.1.15,2013-12-06 20:33:00,
2013-12-06 15:39:00,23.0,15.6,30.32,North,355,4.0,6.0,73,0.00,,,0.00,Wunderground v.1.15,2013-12-06 20:39:00,
2013-12-06 15:44:00,23.1,16.0,30.33,North,355,2.0,3.0,74,0.00,,,0.00,Wunderground v.1.15,2013-12-06 20:44:00,
2013-12-06 15:50:00,23.2,15.8,30.34,North,355,2.0,2.0,73,0.00,,,0.00,Wunderground v.1.15,2013-12-06 20:50:00,
2013-12-06 15:55:00,23.1,14.4,30.33,West,278,2.0,7.0,69,0.00,,,0.00,Wunderground v.1.15,2013-12-06 20:55:00,
2013-12-06 16:01:00,23.1,14.8,30.33,NNW,345,3.0,4.0,70,0.00,,,0.00,Wunderground v.1.15,2013-12-06 21:01:00,
2013-12-06 16:06:00,23.0,14.7,30.33,NW,324,3.0,5.0,70,0.00,,,0.00,Wunderground v.1.15,2013-12-06 21:06:00,
2013-12-06 16:11:00,23.0,14.7,30.33,NNW,346,3.0,4.0,70,0.00,,,0.00,Wunderground v.1.15,2013-12-06 21:11:00,
2013-12-06 16:16:00,22.9,14.2,30.33,NNW,345,3.0,5.0,69,0.00,,,0.00,Wunderground v.1.15,2013-12-06 21:16:00,
2013-12-06 16:22:00,22.8,14.1,30.32,North,355,4.0,5.0,69,0.00,,,0.00,Wunderground v.1.15,2013-12-06 21:22:00,
2013-12-06 16:27:00,22.8,14.5,30.31,NNW,346,3.0,5.0,70,0.00,,,0.00,Wunderground v.1.15,2013-12-06 21:27:00,
2013-12-06 16:33:00,22.8,14.5,30.32,NNW,345,2.0,3.0,70,0.00,,,0.00,Wunderground v.1.15,2013-12-06 21:33:00,
2013-12-06 16:39:00,22.7,14.4,30.33,NNW,340,3.0,7.0,70,0.00,,,0.00,Wunderground v.1.15,2013-12-06 21:39:00,
2013-12-06 16:44:00,22.7,14.4,30.32,NNW,338,4.0,6.0,70,0.00,,,0.00,Wunderground v.1.15,2013-12-06 21:44:00,
2013-12-06 16:50:00,22.7,14.4,30.32,NW,323,4.0,5.0,70,0.00,,,0.00,Wunderground v.1.15,2013-12-06 21:50:00,
2013-12-06 16:55:00,22.6,14.3,30.33,North,349,4.0,5.0,70,0.00,,,0.00,Wunderground v.1.15,2013-12-06 21:55:00,
2013-12-06 17:01:00,22.6,14.3,30.34,NW,326,4.0,4.0,70,0.00,,,0.00,Wunderground v.1.15,2013-12-06 22:01:00,
2013-12-06 17:06:00,22.6,14.6,30.36,North,355,4.0,5.0,71,0.00,,,0.00,Wunderground v.1.15,2013-12-06 22:06:00,
2013-12-06 17:12:00,22.7,14.4,30.35,North,349,4.0,8.0,70,0.00,,,0.00,Wunderground v.1.15,2013-12-06 22:12:00,
2013-12-06 17:17:00,22.6,14.3,30.36,NNW,347,4.0,8.0,70,0.00,,,0.00,Wunderground v.1.15,2013-12-06 22:17:00,
2013-12-06 17:23:00,22.6,14.6,30.36,WNW,291,3.0,5.0,71,0.00,,,0.00,Wunderground v.1.15,2013-12-06 22:23:00,
2013-12-06 17:29:00,22.6,14.6,30.36,WNW,286,2.0,5.0,71,0.00,,,0.00,Wunderground v.1.15,2013-12-06 22:29:00,
2013-12-06 17:34:00,22.6,14.6,30.35,NW,304,2.0,6.0,71,0.00,,,0.00,Wunderground v.1.15,2013-12-06 22:34:00,
2013-12-06 17:40:00,22.5,14.8,30.35,NNW,342,3.0,3.0,72,0.00,,,0.00,Wunderground v.1.15,2013-12-06 22:40:00,
2013-12-06 17:45:00,22.5,14.8,30.34,NNW,333,3.0,5.0,72,0.00,,,0.00,Wunderground v.1.15,2013-12-06 22:45:00,
2013-12-06 17:51:00,22.5,14.8,30.36,NNW,331,2.0,3.0,72,0.00,,,0.00,Wunderground v.1.15,2013-12-06 22:51:00,
2013-12-06 17:56:00,22.5,14.8,30.35,NNW,334,2.0,6.0,72,0.00,,,0.00,Wunderground v.1.15,2013-12-06 22:56:00,
2013-12-06 18:02:00,22.5,15.1,30.36,NNW,348,3.0,6.0,73,0.00,,,0.00,Wunderground v.1.15,2013-12-06 23:02:00,
2013-12-06 18:07:00,22.5,14.8,30.35,NW,311,3.0,6.0,72,0.00,,,0.00,Wunderground v.1.15,2013-12-06 23:07:00,
2013-12-06 18:12:00,22.4,15.1,30.36,NW,311,2.0,3.0,73,0.00,,,0.00,Wunderground v.1.15,2013-12-06 23:12:00,
2013-12-06 18:17:00,22.4,15.1,30.36,NNW,342,2.0,5.0,73,0.00,,,0.00,Wunderground v.1.15,2013-12-06 23:17:00,
2013-12-06 18:23:00,22.4,15.1,30.37,NW,316,3.0,5.0,73,0.00,,,0.00,Wunderground v.1.15,2013-12-06 23:23:00,
2013-12-06 18:29:00,22.4,15.1,30.37,NNW,343,3.0,7.0,73,0.00,,,0.00,Wunderground v.1.15,2013-12-06 23:29:00,
2013-12-06 18:34:00,22.4,15.1,30.37,North,355,3.0,5.0,73,0.00,,,0.00,Wunderground v.1.15,2013-12-06 23:34:00,
2013-12-06 18:40:00,22.4,15.1,30.36,NNW,347,4.0,6.0,73,0.00,,,0.00,Wunderground v.1.15,2013-12-06 23:40:00,
2013-12-06 18:45:00,22.3,15.3,30.38,North,11,4.0,6.0,74,0.00,,,0.00,Wunderground v.1.15,2013-12-06 23:45:00,
2013-12-06 18:51:00,22.4,15.4,30.37,NNW,342,3.0,4.0,74,0.00,,,0.00,Wunderground v.1.15,2013-12-06 23:51:00,
2013-12-06 18:56:00,22.3,15.0,30.37,NNW,334,3.0,6.0,73,0.00,,,0.00,Wunderground v.1.15,2013-12-06 23:56:00,
2013-12-06 19:02:00,22.3,15.0,30.36,NW,311,2.0,2.0,73,0.00,,,0.00,Wunderground v.1.15,2013-12-07 00:02:00,
2013-12-06 19:07:00,22.2,14.9,30.36,North,355,3.0,4.0,73,0.00,,,0.00,Wunderground v.1.15,2013-12-07 00:07:00,
2013-12-06 19:12:00,22.2,14.9,30.37,NNW,330,3.0,4.0,73,0.00,,,0.00,Wunderground v.1.15,2013-12-07 00:12:00,
2013-12-06 19:18:00,22.1,14.4,30.37,North,355,4.0,8.0,72,0.00,,,0.00,Wunderground v.1.15,2013-12-07 00:18:00,
2013-12-06 19:23:00,22.1,14.1,30.37,NNW,348,4.0,5.0,71,0.00,,,0.00,Wunderground v.1.15,2013-12-07 00:23:00,
2013-12-06 19:29:00,22.1,14.1,30.38,NNW,338,5.0,6.0,71,0.00,,,0.00,Wunderground v.1.15,2013-12-07 00:29:00,
2013-12-06 19:34:00,22.1,14.4,30.38,NW,321,4.0,6.0,72,0.00,,,0.00,Wunderground v.1.15,2013-12-07 00:34:00,
2013-12-06 19:40:00,22.1,14.4,30.38,NNW,338,3.0,3.0,72,0.00,,,0.00,Wunderground v.1.15,2013-12-07 00:40:00,
2013-12-06 19:45:00,22.0,14.3,30.39,NW,315,3.0,4.0,72,0.00,,,0.00,Wunderground v.1.15,2013-12-07 00:45:00,
2013-12-06 19:51:00,22.0,14.3,30.39,NW,309,3.0,5.0,72,0.00,,,0.00,Wunderground v.1.15,2013-12-07 00:51:00,
2013-12-06 19:57:00,21.9,14.3,30.39,NNW,336,4.0,7.0,72,0.00,,,0.00,Wunderground v.1.15,2013-12-07 00:57:00,
2013-12-06 20:03:00,21.8,14.5,30.39,North,360,3.0,4.0,73,0.00,,,0.00,Wunderground v.1.15,2013-12-07 01:03:00,
2013-12-06 20:08:00,21.8,14.2,30.39,NNW,338,3.0,9.0,72,0.00,,,0.00,Wunderground v.1.15,2013-12-07 01:08:00,
2013-12-06 20:13:00,21.7,14.4,30.39,NNW,343,3.0,4.0,73,0.00,,,0.00,Wunderground v.1.15,2013-12-07 01:13:00,
2013-12-06 20:18:00,21.7,14.4,30.39,North,360,3.0,7.0,73,0.00,,,0.00,Wunderground v.1.15,2013-12-07 01:18:00,
2013-12-06 20:23:00,21.6,14.3,30.39,NNW,333,4.0,6.0,73,0.00,,,0.00,Wunderground v.1.15,2013-12-07 01:23:00,
2013-12-06 20:29:00,21.6,14.3,30.39,NNW,338,3.0,6.0,73,0.00,,,0.00,Wunderground v.1.15,2013-12-07 01:29:00,
2013-12-06 20:35:00,21.6,14.3,30.39,NNW,340,3.0,3.0,73,0.00,,,0.00,Wunderground v.1.15,2013-12-07 01:35:00,
2013-12-06 20:41:00,21.5,14.5,30.40,NNW,331,2.0,4.0,74,0.00,,,0.00,Wunderground v.1.15,2013-12-07 01:41:00,
2013-12-06 20:46:00,21.4,14.1,30.40,NNW,332,2.0,4.0,73,0.00,,,0.00,Wunderground v.1.15,2013-12-07 01:46:00,
2013-12-06 20:52:00,21.2,13.9,30.39,North,351,4.0,9.0,73,0.00,,,0.00,Wunderground v.1.15,2013-12-07 01:52:00,
2013-12-06 20:57:00,21.1,13.8,30.40,North,350,4.0,9.0,73,0.00,,,0.00,Wunderground v.1.15,2013-12-07 01:57:00,
2013-12-06 21:03:00,21.0,13.7,30.41,NW,326,3.0,7.0,73,0.00,,,0.00,Wunderground v.1.15,2013-12-07 02:03:00,
2013-12-06 21:09:00,20.9,13.6,30.41,NNW,338,3.0,7.0,73,0.00,,,0.00,Wunderground v.1.15,2013-12-07 02:09:00,
2013-12-06 21:14:00,20.8,13.5,30.40,NNW,338,2.0,3.0,73,0.00,,,0.00,Wunderground v.1.15,2013-12-07 02:14:00,
2013-12-06 21:20:00,20.6,13.3,30.40,NNW,341,2.0,2.0,73,0.00,,,0.00,Wunderground v.1.15,2013-12-07 02:20:00,
2013-12-06 21:25:00,20.4,13.4,30.40,NNW,342,2.0,2.0,74,0.00,,,0.00,Wunderground v.1.15,2013-12-07 02:25:00,
2013-12-06 21:31:00,20.2,13.2,30.41,NNW,342,2.0,3.0,74,0.00,,,0.00,Wunderground v.1.15,2013-12-07 02:31:00,
2013-12-06 21:36:00,20.1,13.4,30.41,NNW,342,2.0,3.0,75,0.00,,,0.00,Wunderground v.1.15,2013-12-07 02:36:00,
2013-12-06 21:42:00,19.8,13.2,30.40,NNW,341,2.0,4.0,75,0.00,,,0.00,Wunderground v.1.15,2013-12-07 02:42:00,
2013-12-06 21:47:00,19.7,13.4,30.40,NNW,341,2.0,6.0,76,0.00,,,0.00,Wunderground v.1.15,2013-12-07 02:47:00,
2013-12-06 21:53:00,19.7,13.4,30.41,NNW,347,3.0,5.0,76,0.00,,,0.00,Wunderground v.1.15,2013-12-07 02:53:00,
2013-12-06 21:59:00,19.7,13.4,30.41,NW,307,5.0,9.0,76,0.00,,,0.00,Wunderground v.1.15,2013-12-07 02:59:00,
2013-12-06 22:04:00,19.7,13.4,30.41,North,360,5.0,6.0,76,0.00,,,0.00,Wunderground v.1.15,2013-12-07 03:04:00,
2013-12-06 22:10:00,19.5,13.2,30.41,NW,323,4.0,4.0,76,0.00,,,0.00,Wunderground v.1.15,2013-12-07 03:10:00,
2013-12-06 22:15:00,19.4,13.1,30.41,NNW,347,4.0,7.0,76,0.00,,,0.00,Wunderground v.1.15,2013-12-07 03:15:00,
2013-12-06 22:20:00,19.2,12.9,30.41,NW,319,4.0,4.0,76,0.00,,,0.00,Wunderground v.1.15,2013-12-07 03:20:00,
2013-12-06 22:26:00,19.0,13.0,30.42,North,355,3.0,5.0,77,0.00,,,0.00,Wunderground v.1.15,2013-12-07 03:26:00,
2013-12-06 22:31:00,18.9,12.9,30.43,NNW,336,4.0,4.0,77,0.00,,,0.00,Wunderground v.1.15,2013-12-07 03:31:00,
2013-12-06 22:38:00,18.8,12.8,30.43,NNW,342,4.0,4.0,77,0.00,,,0.00,Wunderground v.1.15,2013-12-07 03:38:00,
2013-12-06 22:43:00,18.7,12.7,30.43,NNW,346,4.0,4.0,77,0.00,,,0.00,Wunderground v.1.15,2013-12-07 03:43:00,
2013-12-06 22:49:00,18.7,12.7,30.42,NW,325,3.0,5.0,77,0.00,,,0.00,Wunderground v.1.15,2013-12-07 03:49:00,
2013-12-06 22:54:00,18.6,12.6,30.43,NW,319,3.0,5.0,77,0.00,,,0.00,Wunderground v.1.15,2013-12-07 03:54:00,
2013-12-06 23:00:00,18.7,13.0,30.43,NW,307,3.0,3.0,78,0.00,,,0.00,Wunderground v.1.15,2013-12-07 04:00:00,
2013-12-06 23:06:00,18.7,12.7,30.43,NNW,329,3.0,5.0,77,0.00,,,0.00,Wunderground v.1.15,2013-12-07 04:06:00,
2013-12-06 23:11:00,18.7,12.7,30.43,NW,321,4.0,10.0,77,0.00,,,0.00,Wunderground v.1.15,2013-12-07 04:11:00,
2013-12-06 23:17:00,18.7,12.7,30.43,NW,313,4.0,10.0,77,0.00,,,0.00,Wunderground v.1.15,2013-12-07 04:17:00,
2013-12-06 23:22:00,18.8,12.5,30.43,NW,319,4.0,6.0,76,0.00,,,0.00,Wunderground v.1.15,2013-12-07 04:22:00,
2013-12-06 23:27:00,18.7,12.4,30.44,North,355,4.0,8.0,76,0.00,,,0.00,Wunderground v.1.15,2013-12-07 04:27:00,
2013-12-06 23:33:00,18.7,11.8,30.44,NW,322,5.0,6.0,74,0.00,,,0.00,Wunderground v.1.15,2013-12-07 04:33:00,
2013-12-06 23:39:00,18.6,11.7,30.45,NNW,331,4.0,6.0,74,0.00,,,0.00,Wunderground v.1.15,2013-12-07 04:39:00,
2013-12-06 23:45:00,18.6,12.0,30.45,NW,323,3.0,9.0,75,0.00,,,0.00,Wunderground v.1.15,2013-12-07 04:45:00,
2013-12-06 23:51:00,18.7,12.1,30.46,NNW,348,3.0,3.0,75,0.00,,,0.00,Wunderground v.1.15,2013-12-07 04:51:00,
2013-12-06 23:56:00,18.7,12.1,30.46,NNW,348,2.0,3.0,75,0.00,,,0.00,Wunderground v.1.15,2013-12-07 04:56:00,